This demonstration page uses our WeatherBlox Daily Observations layout. Learn more.

Hourly Observations for July 28, 2017

Temp ( °F °C ) Dew Point ( °F °C ) Humidity (%) Winds ( mph kmh ) Pressure ( in mb ) Visibility ( mi km ) Precip ( " mm )
12:15 am 00:15 Partly Cloudy 73 23 73 23 100 100 NW 3 6 29.88 1012 7 11.265408 0 0
12:35 am 00:35 Clear 73 23 73 23 100 100 NNW 3 6 29.88 1012 10 16.09344 0 0
12:55 am 00:55 Clear 75 24 73 23 94 94 Calm 29.88 1012 10 16.09344 0 0
1:15 am 01:15 Clear 73 23 73 23 100 100 Calm 29.88 1012 10 16.09344 0 0
1:35 am 01:35 Partly Cloudy 73 23 73 23 100 100 Calm 29.88 1012 10 16.09344 0 0
1:55 am 01:55 Partly Cloudy 73 23 73 23 100 100 Calm 29.85 1011 10 16.09344 0 0
2:20 am 02:20 Clear 73 23 72 22 94 94 WNW 3 6 29.85 1011 10 16.09344 0 0
2:40 am 02:40 Clear 72 22 72 22 100 100 NNW 3 6 29.85 1011 10 16.09344 0 0
2:55 am 02:55 Clear 72 22 72 22 100 100 NW 3 6 29.85 1011 10 16.09344 0 0
3:15 am 03:15 Clear 73 23 72 22 94 94 Calm 29.85 1011 10 16.09344 0 0
3:35 am 03:35 Clear 73 23 72 22 94 94 Calm 29.85 1011 10 16.09344 0 0
3:55 am 03:55 Clear 72 22 72 22 100 100 Calm 29.85 1011 10 16.09344 0 0
4:15 am 04:15 Clear 72 22 72 22 100 100 Calm 29.85 1011 10 16.09344 0 0
4:35 am 04:35 Clear 70 21 70 21 100 100 Calm 29.85 1011 10 16.09344 0 0
4:55 am 04:55 Clear 70 21 70 21 100 100 Calm 29.85 1011 10 16.09344 0 0
5:15 am 05:15 Clear 70 21 70 21 100 100 Calm 29.85 1011 10 16.09344 0 0
5:35 am 05:35 Mostly Cloudy 72 22 72 22 100 100 Calm 29.85 1011 10 16.09344 0 0
5:55 am 05:55 Cloudy 70 21 70 21 100 100 Calm 29.85 1011 10 16.09344 0 0
6:15 am 06:15 Cloudy 72 22 72 22 100 100 NNW 3 6 29.85 1011 10 16.09344 0 0
6:35 am 06:35 Cloudy 72 22 72 22 100 100 Calm 29.85 1011 10 16.09344 0 0
6:55 am 06:55 Mostly Cloudy 73 23 72 22 94 94 Calm 29.85 1011 10 16.09344 0 0
7:15 am 07:15 Cloudy 73 23 72 22 94 94 Calm 29.85 1011 10 16.09344 0 0
7:35 am 07:35 Cloudy 73 23 72 22 94 94 Calm 29.85 1011 10 16.09344 0 0
7:55 am 07:55 Cloudy 73 23 72 22 94 94 W 5 7 29.85 1011 10 16.09344 0 0
8:15 am 08:15 Cloudy 73 23 72 22 94 94 Calm 29.85 1011 10 16.09344 0 0
8:35 am 08:35 Cloudy 75 24 73 23 94 94 NNW 5 7 29.85 1011 10 16.09344 0 0
8:55 am 08:55 Cloudy 75 24 72 22 89 89 N 3 6 29.85 1011 10 16.09344 0 0
9:15 am 09:15 Cloudy 77 25 73 23 89 89 N 5 7 29.85 1011 10 16.09344 0 0
9:35 am 09:35 Cloudy 77 25 73 23 89 89 NNE 5 7 29.85 1011 7 11.265408 0 0
9:55 am 09:55 Cloudy 77 25 73 23 89 89 Calm 29.85 1011 7 11.265408 0 0
10:15 am 10:15 Cloudy 77 25 73 23 89 89 ENE 3 6 29.85 1011 7 11.265408 0 0
10:35 am 10:35 Cloudy 77 25 73 23 89 89 Calm 29.85 1011 7 11.265408 0 0
10:55 am 10:55 Cloudy 77 25 75 24 94 94 Calm 29.85 1011 7 11.265408 0 0
11:15 am 11:15 Cloudy with Light Drizzle 77 25 75 24 94 94 NNE 3 6 29.83 1010 7 11.265408 0 0
11:35 am 11:35 Cloudy with Nearby Thunderstorms 77 25 75 24 94 94 Calm 29.83 1010 7 11.265408 0 0
11:55 am 11:55 Cloudy with Thunderstorms 79 26 75 24 89 89 NW 5 7 29.83 1010 10 16.09344 0 0
12:15 pm 12:15 Cloudy 79 26 75 24 89 89 Calm 29.83 1010 10 16.09344 0 0
12:35 pm 12:35 Cloudy with Nearby Thunderstorms 79 26 75 24 89 89 Calm 29.83 1010 10 16.09344 0 0
12:55 pm 12:55 Cloudy 79 26 75 24 89 89 NNE 6 9 29.83 1010 10 16.09344 0 0
1:15 pm 13:15 Cloudy 77 25 73 23 89 89 NE 9 15 29.83 1010 10 16.09344 0 0
1:35 pm 13:35 Cloudy 77 25 73 23 89 89 ENE 6 9 29.83 1010 10 16.09344 0 0
1:55 pm 13:55 Cloudy with Nearby Thunderstorms 79 26 73 23 84 84 ENE 5 7 29.8 1009 10 16.09344 0 0
2:15 pm 14:15 Cloudy with Nearby Thunderstorms 77 25 73 23 89 89 NE 8 13 29.8 1009 10 16.09344 0 0
2:35 pm 14:35 Cloudy 79 26 73 23 84 84 NE 9 15 29.8 1009 10 16.09344 0 0
2:55 pm 14:55 Mostly Cloudy 79 26 73 23 84 84 NE 7 11 29.77 1008 10 16.09344 0 0
3:15 pm 15:15 Mostly Cloudy 79 26 73 23 84 84 NE 6 9 29.77 1008 10 16.09344 0 0
3:35 pm 15:35 Cloudy 79 26 73 23 84 84 NE 5 7 29.77 1008 10 16.09344 0 0
3:55 pm 15:55 Cloudy 77 25 75 24 94 94 NE 6 9 29.77 1008 10 16.09344 0 0
4:15 pm 16:15 Cloudy 77 25 75 24 94 94 ENE 5 7 29.77 1008 10 16.09344 0 0
4:35 pm 16:35 Cloudy with Heavy Rain 75 24 73 23 94 94 Calm 29.77 1008 1.25 2.01168 0 0
4:55 pm 16:55 Cloudy with Heavy Rain 73 23 73 23 100 100 Calm 29.77 1008 1 1.609344 0 0
5:15 pm 17:15 Cloudy 73 23 73 23 100 100 ESE 5 7 29.77 1008 1.25 2.01168 0 0
5:35 pm 17:35 Cloudy with Heavy Rain 73 23 73 23 100 100 ENE 3 6 29.77 1008 1.25 2.01168 0 0
5:55 pm 17:55 Cloudy with Rain 72 22 72 22 100 100 ESE 6 9 29.77 1008 4 6.437376 0 0
6:15 pm 18:15 Cloudy with Rain 72 22 72 22 100 100 ESE 9 15 29.74 1007 5 8.04672 0 0
6:35 pm 18:35 Cloudy with Light Rain 72 22 72 22 100 100 ESE 7 11 29.74 1007 7 11.265408 0 0
6:55 pm 18:55 Cloudy with Light Rain 72 22 72 22 100 100 E 7 11 29.74 1007 10 16.09344 0 0
7:15 pm 19:15 Mostly Cloudy 72 22 72 22 100 100 NE 5 7 29.74 1007 10 16.09344 0 0
7:35 pm 19:35 Mostly Cloudy 72 22 72 22 100 100 ENE 3 6 29.74 1007 10 16.09344 0 0
7:55 pm 19:55 Cloudy 72 22 72 22 100 100 Calm 29.74 1007 10 16.09344 0 0
8:15 pm 20:15 Cloudy with Rain 72 22 72 22 100 100 SSE 6 9 29.74 1007 10 16.09344 0 0
8:35 pm 20:35 Cloudy with Rain 72 22 72 22 100 100 SE 5 7 29.74 1007 10 16.09344 0 0
8:55 pm 20:55 Cloudy with Light Rain 72 22 72 22 100 100 E 9 15 29.74 1007 5 8.04672 0 0
9:15 pm 21:15 Cloudy with Heavy Thunderstorms 72 22 72 22 100 100 E 17 28 29.74 1007 4 6.437376 0 0
9:35 pm 21:35 Cloudy with Heavy Rain 72 22 72 22 100 100 ESE 8 13 29.74 1007 3 4.828032 0 0
9:55 pm 21:55 Cloudy with Heavy Rain 72 22 72 22 100 100 E 8 13 29.74 1007 4 6.437376 0 0
10:15 pm 22:15 Cloudy with Heavy Rain 70 21 70 21 100 100 E 10 17 29.74 1007 5 8.04672 0 0
10:35 pm 22:35 Cloudy with Heavy Rain 70 21 70 21 100 100 ESE 14 22 29.74 1007 5 8.04672 0 0
10:55 pm 22:55 Cloudy with Rain 70 21 70 21 100 100 E 13 20 29.71 1006 4 6.437376 0 0
11:15 pm 23:15 Cloudy with Heavy Rain 70 21 70 21 100 100 NE 13 20 29.71 1006 4 6.437376 0 0
11:35 pm 23:35 Cloudy with Heavy Rain 70 21 70 21 100 100 NE 9 15 29.71 1006 3 4.828032 0 0
11:55 pm 23:55 Cloudy with Heavy Rain 70 21 70 21 100 100 NE 9 15 29.71 1006 4 6.437376 0 0

Powered by AerisWeather